Time,TemperatureF,DewpointF,PressureIn,WindDirection,WindDirectionDegrees,WindSpeedMPH,WindSpeedGustMPH,Humidity,HourlyPrecipIn,Conditions,Clouds,dailyrainin,SoftwareType,DateUTC
2013-07-16 00:01:00,70.0,68.0,29.70,East,80,0.0,-999.0,95,0.00,,,1.73,,2013-07-16 05:01:00,
2013-07-16 00:11:00,70.0,68.0,29.70,North,360,0.0,-999.0,95,0.00,,,1.73,,2013-07-16 05:11:00,
2013-07-16 00:22:00,70.0,68.0,29.70,North,5,0.0,-999.0,95,0.00,,,0.00,,2013-07-16 05:22:00,
2013-07-16 00:32:00,70.0,68.0,29.70,NNW,346,0.0,-999.0,95,0.00,,,0.00,,2013-07-16 05:32:00,
2013-07-16 00:43:00,70.0,68.0,29.70,ENE,64,1.0,-999.0,95,0.00,,,0.00,,2013-07-16 05:43:00,
2013-07-16 00:52:00,70.0,68.0,29.70,ESE,105,0.0,-999.0,95,0.00,,,0.00,,2013-07-16 05:52:00,
2013-07-16 01:01:00,70.0,68.0,29.70,East,82,0.0,-999.0,95,0.00,,,0.00,,2013-07-16 06:01:00,
2013-07-16 01:11:00,70.0,68.0,29.70,East,82,0.0,-999.0,95,0.00,,,0.00,,2013-07-16 06:11:00,
2013-07-16 01:21:00,70.0,68.0,29.70,East,82,0.0,-999.0,95,0.00,,,0.00,,2013-07-16 06:21:00,
2013-07-16 01:31:00,71.0,69.0,29.70,East,82,0.0,-999.0,95,0.00,,,0.00,,2013-07-16 06:31:00,
2013-07-16 01:43:00,71.0,69.0,29.70,East,82,0.0,-999.0,95,0.00,,,0.00,,2013-07-16 06:43:00,
2013-07-16 01:52:00,71.0,69.0,29.70,East,82,0.0,-999.0,95,0.00,,,0.00,,2013-07-16 06:52:00,
2013-07-16 02:01:00,71.0,69.0,29.70,East,82,0.0,-999.0,95,0.00,,,0.00,,2013-07-16 07:01:00,
2013-07-16 02:11:00,71.0,69.0,29.70,East,82,0.0,-999.0,95,0.00,,,0.00,,2013-07-16 07:11:00,
2013-07-16 02:22:00,71.0,69.0,29.70,East,82,0.0,-999.0,95,0.00,,,0.00,,2013-07-16 07:22:00,
2013-07-16 02:32:00,71.0,69.0,29.70,East,82,0.0,-999.0,95,0.00,,,0.00,,2013-07-16 07:32:00,
2013-07-16 02:43:00,71.0,69.0,29.70,East,82,0.0,-999.0,95,0.00,,,0.00,,2013-07-16 07:43:00,
2013-07-16 02:52:00,71.0,70.0,29.70,East,82,0.0,-999.0,96,0.00,,,0.00,,2013-07-16 07:52:00,
2013-07-16 03:01:00,71.0,70.0,29.70,East,82,0.0,-999.0,96,0.00,,,0.00,,2013-07-16 08:01:00,
2013-07-16 03:11:00,71.0,69.0,29.69,East,82,0.0,-999.0,95,0.00,,,0.00,,2013-07-16 08:11:00,
2013-07-16 03:22:00,71.0,69.0,29.69,East,82,0.0,-999.0,95,0.00,,,0.00,,2013-07-16 08:22:00,
2013-07-16 03:32:00,71.0,70.0,29.69,East,82,0.0,-999.0,96,0.00,,,0.00,,2013-07-16 08:32:00,
2013-07-16 03:43:00,72.0,70.0,29.69,East,82,0.0,-999.0,95,0.00,,,0.00,,2013-07-16 08:43:00,
2013-07-16 03:52:00,72.0,70.0,29.69,East,82,1.0,-999.0,95,0.00,,,0.00,,2013-07-16 08:52:00,
2013-07-16 04:01:00,72.0,70.0,29.69,East,82,0.0,-999.0,95,0.00,,,0.00,,2013-07-16 09:01:00,
2013-07-16 04:12:00,72.0,70.0,29.69,East,82,0.0,-999.0,95,0.00,,,0.00,,2013-07-16 09:12:00,
2013-07-16 04:22:00,72.0,71.0,29.68,East,82,0.0,-999.0,96,0.00,,,0.00,,2013-07-16 09:22:00,
2013-07-16 04:32:00,72.0,71.0,29.69,East,82,0.0,-999.0,96,0.00,,,0.00,,2013-07-16 09:32:00,
2013-07-16 04:42:00,72.0,71.0,29.68,East,82,0.0,-999.0,96,0.00,,,0.00,,2013-07-16 09:42:00,
2013-07-16 04:52:00,72.0,71.0,29.68,East,82,0.0,-999.0,96,0.00,,,0.00,,2013-07-16 09:52:00,
2013-07-16 05:01:00,72.0,71.0,29.68,East,82,0.0,-999.0,96,0.00,,,0.00,,2013-07-16 10:01:00,
2013-07-16 05:22:00,72.0,71.0,29.68,East,82,0.0,-999.0,96,0.00,,,0.00,,2013-07-16 10:22:00,
2013-07-16 05:31:00,72.0,71.0,29.68,East,82,0.0,-999.0,96,0.00,,,0.00,,2013-07-16 10:31:00,
2013-07-16 05:43:00,72.0,71.0,29.69,East,82,0.0,-999.0,96,0.00,,,0.00,,2013-07-16 10:43:00,
2013-07-16 05:52:00,72.0,71.0,29.69,East,82,0.0,-999.0,96,0.00,,,0.00,,2013-07-16 10:52:00,
2013-07-16 06:01:00,73.0,72.0,29.69,ENE,67,1.0,-999.0,96,0.00,,,0.00,,2013-07-16 11:01:00,
2013-07-16 06:11:00,73.0,72.0,29.70,ENE,75,2.0,-999.0,96,0.00,,,0.00,,2013-07-16 11:11:00,
2013-07-16 06:22:00,73.0,72.0,29.70,East,94,2.0,-999.0,96,0.00,,,0.00,,2013-07-16 11:22:00,
2013-07-16 06:32:00,73.0,72.0,29.70,East,94,2.0,-999.0,96,0.00,,,0.00,,2013-07-16 11:32:00,
2013-07-16 06:42:00,73.0,72.0,29.70,East,91,0.0,-999.0,96,0.00,,,0.00,,2013-07-16 11:42:00,
2013-07-16 06:52:00,73.0,72.0,29.71,East,85,0.0,-999.0,96,0.00,,,0.00,,2013-07-16 11:52:00,
2013-07-16 07:01:00,73.0,72.0,29.71,East,85,0.0,-999.0,96,0.00,,,0.00,,2013-07-16 12:01:00,
2013-07-16 07:11:00,73.0,72.0,29.71,NE,51,1.0,-999.0,96,0.00,,,0.00,,2013-07-16 12:11:00,
2013-07-16 07:22:00,73.0,72.0,29.72,ENE,72,1.0,-999.0,96,0.00,,,0.00,,2013-07-16 12:22:00,
2013-07-16 07:32:00,73.0,72.0,29.72,ENE,76,2.0,-999.0,96,0.00,,,0.00,,2013-07-16 12:32:00,
2013-07-16 07:43:00,73.0,72.0,29.72,ENE,73,3.0,-999.0,96,0.00,,,0.00,,2013-07-16 12:43:00,
2013-07-16 07:53:00,72.0,71.0,29.73,East,88,2.0,-999.0,96,0.00,,,0.00,,2013-07-16 12:53:00,
2013-07-16 08:01:00,72.0,71.0,29.73,ESE,105,1.0,-999.0,96,0.00,,,0.00,,2013-07-16 13:01:00,
2013-07-16 08:11:00,73.0,72.0,29.73,East,96,2.0,-999.0,96,0.00,,,0.00,,2013-07-16 13:11:00,
2013-07-16 08:21:00,73.0,72.0,29.74,East,82,0.0,-999.0,96,0.00,,,0.00,,2013-07-16 13:21:00,
2013-07-16 08:32:00,73.0,72.0,29.74,East,82,0.0,-999.0,96,0.00,,,0.00,,2013-07-16 13:32:00,
2013-07-16 08:42:00,73.0,72.0,29.74,East,87,1.0,-999.0,96,0.00,,,0.00,,2013-07-16 13:42:00,
2013-07-16 08:52:00,73.0,72.0,29.74,ESE,110,2.0,-999.0,96,0.00,,,0.00,,2013-07-16 13:52:00,
2013-07-16 09:01:00,73.0,72.0,29.74,ESE,110,2.0,-999.0,96,0.00,,,0.00,,2013-07-16 14:01:00,
2013-07-16 09:11:00,74.0,73.0,29.74,ENE,71,3.0,-999.0,96,0.00,,,0.00,,2013-07-16 14:11:00,
2013-07-16 09:21:00,74.0,73.0,29.75,ENE,60,1.0,-999.0,96,0.00,,,0.00,,2013-07-16 14:21:00,
2013-07-16 09:32:00,74.0,72.0,29.75,North,355,3.0,-999.0,95,0.00,,,0.00,,2013-07-16 14:32:00,
2013-07-16 09:42:00,74.0,72.0,29.75,East,83,0.0,-999.0,95,0.00,,,0.00,,2013-07-16 14:42:00,
2013-07-16 09:52:00,74.0,72.0,29.75,East,83,0.0,-999.0,95,0.00,,,0.00,,2013-07-16 14:52:00,
2013-07-16 10:01:00,75.0,73.0,29.75,NE,50,1.0,-999.0,95,0.00,,,0.00,,2013-07-16 15:01:00,
2013-07-16 10:11:00,76.0,74.0,29.75,ENE,76,1.0,-999.0,93,0.00,,,0.00,,2013-07-16 15:11:00,
2013-07-16 10:21:00,76.0,73.0,29.75,East,80,3.0,-999.0,91,0.00,,,0.00,,2013-07-16 15:21:00,
2013-07-16 10:32:00,77.0,74.0,29.75,East,86,0.0,-999.0,91,0.00,,,0.00,,2013-07-16 15:32:00,
2013-07-16 10:43:00,77.0,74.0,29.75,East,94,0.0,-999.0,90,0.00,,,0.00,,2013-07-16 15:43:00,
2013-07-16 10:53:00,77.0,74.0,29.76,East,95,0.0,-999.0,90,0.00,,,0.00,,2013-07-16 15:53:00,
2013-07-16 11:01:00,77.0,74.0,29.76,East,95,0.0,-999.0,90,0.00,,,0.00,,2013-07-16 16:01:00,
2013-07-16 11:11:00,78.0,74.0,29.76,East,90,0.0,-999.0,87,0.00,,,0.00,,2013-07-16 16:11:00,
2013-07-16 11:21:00,79.0,73.0,29.76,SE,126,1.0,-999.0,83,0.00,,,0.00,,2013-07-16 16:21:00,
2013-07-16 11:32:00,79.0,73.0,29.76,SE,126,1.0,-999.0,83,0.00,,,0.00,,2013-07-16 16:32:00,
2013-07-16 11:43:00,80.0,74.0,29.76,East,86,3.0,-999.0,81,0.00,,,0.00,,2013-07-16 16:43:00,
2013-07-16 11:52:00,80.0,73.0,29.76,East,79,0.0,-999.0,80,0.00,,,0.00,,2013-07-16 16:52:00,
2013-07-16 12:02:00,80.0,74.0,29.76,ENE,77,2.0,-999.0,81,0.00,,,0.00,,2013-07-16 17:02:00,
2013-07-16 12:12:00,81.0,74.0,29.76,East,87,1.0,-999.0,80,0.00,,,0.00,,2013-07-16 17:12:00,
2013-07-16 12:22:00,83.0,74.0,29.75,SE,138,2.0,-999.0,75,0.00,,,0.00,,2013-07-16 17:22:00,
2013-07-16 12:32:00,83.0,73.0,29.75,ENE,67,0.0,-999.0,72,0.00,,,0.00,,2013-07-16 17:32:00,
2013-07-16 13:32:00,87.0,72.0,29.73,ENE,65,4.0,-999.0,62,0.00,,,0.00,,2013-07-16 18:32:00,
2013-07-16 13:43:00,87.0,72.0,29.73,ENE,70,4.0,-999.0,61,0.00,,,0.00,,2013-07-16 18:43:00,
2013-07-16 13:52:00,87.0,73.0,29.73,SE,126,1.0,-999.0,63,0.00,,,0.00,,2013-07-16 18:52:00,
2013-07-16 14:01:00,86.0,70.0,29.73,ENE,74,4.0,-999.0,60,0.00,,,0.00,,2013-07-16 19:01:00,
2013-07-16 14:11:00,86.0,70.0,29.72,East,90,2.0,-999.0,60,0.00,,,0.00,,2013-07-16 19:11:00,
2013-07-16 14:32:00,87.0,70.0,29.72,SE,134,2.0,-999.0,58,0.00,,,0.00,,2013-07-16 19:32:00,
2013-07-16 14:43:00,87.0,71.0,29.72,ENE,70,4.0,-999.0,59,0.00,,,0.00,,2013-07-16 19:43:00,
2013-07-16 14:52:00,87.0,71.0,29.72,ENE,70,4.0,-999.0,59,0.00,,,0.00,,2013-07-16 19:52:00,
2013-07-16 15:03:00,86.0,71.0,29.72,NNE,26,3.0,-999.0,61,0.00,,,0.00,,2013-07-16 20:03:00,
2013-07-16 17:33:00,79.0,72.0,29.70,SW,221,0.0,-999.0,80,0.00,,,0.14,,2013-07-16 22:33:00,
2013-07-16 17:43:00,79.0,72.0,29.70,SW,221,0.0,-999.0,80,0.00,,,0.14,,2013-07-16 22:43:00,
2013-07-16 17:52:00,79.0,73.0,29.70,SW,221,0.0,-999.0,83,0.00,,,0.14,,2013-07-16 22:52:00,
2013-07-16 18:01:00,79.0,73.0,29.70,SSE,148,1.0,-999.0,82,0.00,,,0.14,,2013-07-16 23:01:00,
2013-07-16 18:11:00,79.0,73.0,29.70,SSE,148,1.0,-999.0,82,0.00,,,0.14,,2013-07-16 23:11:00,
2013-07-16 18:22:00,79.0,73.0,29.69,SSE,148,0.0,-999.0,81,0.00,,,0.14,,2013-07-16 23:22:00,
2013-07-16 18:32:00,80.0,74.0,29.69,SSE,148,0.0,-999.0,81,0.00,,,0.14,,2013-07-16 23:32:00,
2013-07-16 18:43:00,80.0,74.0,29.69,SSE,148,0.0,-999.0,81,0.00,,,0.14,,2013-07-16 23:43:00,
2013-07-16 18:52:00,80.0,74.0,29.69,North,360,0.0,-999.0,81,0.00,,,0.14,,2013-07-16 23:52:00,
2013-07-16 19:01:00,80.0,73.0,29.70,ENE,65,0.0,-999.0,80,0.00,,,0.14,,2013-07-17 00:01:00,
2013-07-16 19:11:00,80.0,73.0,29.71,ENE,65,0.0,-999.0,80,0.00,,,0.14,,2013-07-17 00:11:00,
2013-07-16 19:22:00,80.0,73.0,29.71,ENE,65,0.0,-999.0,80,0.00,,,0.14,,2013-07-17 00:22:00,
2013-07-16 19:33:00,80.0,74.0,29.71,ENE,65,0.0,-999.0,81,0.00,,,0.14,,2013-07-17 00:33:00,
2013-07-16 19:42:00,80.0,73.0,29.72,ENE,65,0.0,-999.0,80,0.00,,,0.14,,2013-07-17 00:42:00,
2013-07-16 19:52:00,81.0,74.0,29.72,ENE,65,0.0,-999.0,79,0.00,,,0.14,,2013-07-17 00:52:00,
2013-07-16 20:01:00,81.0,74.0,29.72,ENE,65,0.0,-999.0,79,0.00,,,0.14,,2013-07-17 01:01:00,
2013-07-16 20:11:00,81.0,74.0,29.72,ENE,65,0.0,-999.0,79,0.00,,,0.14,,2013-07-17 01:11:00,
2013-07-16 20:22:00,79.0,72.0,29.75,East,82,8.0,-999.0,80,0.00,,,0.14,,2013-07-17 01:22:00,
2013-07-16 20:32:00,79.0,72.0,29.75,East,82,8.0,-999.0,80,0.00,,,0.14,,2013-07-17 01:32:00,
2013-07-16 20:42:00,77.0,71.0,29.75,East,86,3.0,-999.0,83,0.00,,,0.14,,2013-07-17 01:42:00,
2013-07-16 20:53:00,76.0,72.0,29.76,East,85,3.0,-999.0,86,0.00,,,0.14,,2013-07-17 01:53:00,
2013-07-16 21:01:00,75.0,71.0,29.76,East,88,1.0,-999.0,87,0.00,,,0.14,,2013-07-17 02:01:00,
2013-07-16 21:11:00,74.0,71.0,29.77,ENE,72,4.0,-999.0,89,0.00,,,0.14,,2013-07-17 02:11:00,
2013-07-16 21:22:00,74.0,71.0,29.76,East,80,3.0,-999.0,90,0.00,,,0.14,,2013-07-17 02:22:00,
2013-07-16 21:32:00,74.0,71.0,29.76,ESE,105,0.0,-999.0,89,0.00,,,0.14,,2013-07-17 02:32:00,
2013-07-16 21:43:00,74.0,71.0,29.76,ENE,76,2.0,-999.0,90,0.00,,,0.14,,2013-07-17 02:43:00,
2013-07-16 21:53:00,74.0,71.0,29.76,East,95,0.0,-999.0,90,0.00,,,0.14,,2013-07-17 02:53:00,
2013-07-16 22:01:00,74.0,71.0,29.76,North,360,3.0,-999.0,90,0.00,,,0.14,,2013-07-17 03:01:00,
2013-07-16 22:11:00,74.0,71.0,29.76,North,360,3.0,-999.0,90,0.00,,,0.14,,2013-07-17 03:11:00,
2013-07-16 22:22:00,74.0,71.0,29.77,ESE,105,2.0,-999.0,90,0.00,,,0.14,,2013-07-17 03:22:00,
2013-07-16 22:32:00,74.0,71.0,29.77,NE,43,0.0,-999.0,91,0.00,,,0.14,,2013-07-17 03:32:00,
2013-07-16 22:43:00,74.0,71.0,29.77,ENE,75,2.0,-999.0,91,0.00,,,0.14,,2013-07-17 03:43:00,
2013-07-16 22:52:00,73.0,70.0,29.78,East,93,2.0,-999.0,91,0.00,,,0.14,,2013-07-17 03:52:00,
2013-07-16 23:01:00,73.0,70.0,29.78,East,82,2.0,-999.0,90,0.00,,,0.14,,2013-07-17 04:01:00,
2013-07-16 23:11:00,73.0,70.0,29.78,East,80,0.0,-999.0,90,0.00,,,0.14,,2013-07-17 04:11:00,
2013-07-16 23:22:00,73.0,70.0,29.78,East,80,0.0,-999.0,90,0.00,,,0.14,,2013-07-17 04:22:00,
2013-07-16 23:32:00,73.0,70.0,29.78,East,80,0.0,-999.0,90,0.00,,,0.14,,2013-07-17 04:32:00,
2013-07-16 23:43:00,73.0,70.0,29.79,East,80,0.0,-999.0,90,0.00,,,0.14,,2013-07-17 04:43:00,
2013-07-16 23:53:00,73.0,70.0,29.79,East,80,0.0,-999.0,90,0.00,,,0.14,,2013-07-17 04:53:00,